Location: Long Island Community Building
(39.9491°N, 99.5338°W)
Time: 10:19:43
(UTC+00:00)

Helios 1A Rocket - Pass Details

Date: 06 December 2019
Orbit: 563 x 587 km, 98.3° (Epoch: 20 January)

Event Time Altitude Azimuth Distance (km) Brightness Sun altitude
Rises 12:56:28 0° 2° (N) 2,776 6.2 -9.3°
Reaches altitude 10° 12:58:47 10° 352° (N) 1,871 5.2 -8.9°
Maximum altitude 13:02:20 30° 290° (WNW) 1,017 3.6 -8.2°
Drops below altitude 10° 13:05:52 10° 228° (SW) 1,853 5.3 -7.6°
Sets 13:08:10 0° 218° (SW) 2,744 6.2 -7.2°
